星链-34014 (STARLINK-34014)

导读 | 豆包AI

STARLINK-34014是美国SpaceX公司星链(Starlink)低轨通信星座的量产卫星,于2025年5月13日发射入轨。卫星采用平板设计,搭载Ku、Ka波段通信载荷与光学星间链路,以氪基霍尔推进器实现轨道维持和离轨,具备自主避撞能力。它运行于近地轨道,服务全球宽带互联网接入,寿命末期将主动脱轨再入大气层焚毁,单星设计寿命约5-7年,是星链全球星座组网的重要组成部分。

基本信息
目录编号:
63942
目录名称:
STARLINK-34014
国际标识:
2025-098S
轨道中心:
EARTH
卫星名称:
星链-34014
卫星全名:
星链-34014 (STARLINK-34014)
卫星状态:
在轨 (已飞行305 天)
发射日期:
2025-05-13 UTC
国别 :
美国 (US)
星等 :
--
轨道信息
数据来源 国际轨道数据 AOE轨道数据
星历时间 2026-03-14T13:34:52+0800
13小时前
查看轨道信息
2026-03-11T08:00:00+0800
3天前
查看轨道信息
半长轴 6950.221km 6950.185km
偏心率 0.0002526 0.0002967
轨道倾角 70.000° 70.000°
近地点辐角 264.588° 292.234°
升交点赤经 262.971° 271.124°
平近点角 95.499° 276.513°
近地点 570.328km 569.985km
远地点 573.84km 574.111km
周期 96.108分钟 96.107分钟
每日圈数 14.983211 14.983327
详细信息
固有亮度:
5
最大亮度:
2.5
卫星平台:
Starlink V1.0
覆盖范围:
全球
运营商:
太空探索技术公司
运营商所在国:
美国
制造商(研发单位):
太空探索技术公司
制造商所在国:
美国
使用方式:
暂无
卫星简介
Starlink 计划是 SpaceX 推出的全球卫星互联网项目,通过发射低轨道卫星,为全球尤其是偏远地区提供高速、低延迟的互联网服务。自 2019 年起,Starlink 已部署数千颗卫星,旨在缩小全球数字鸿沟,推动互联网普及。该项目还为军事、航空等行业提供通信支持,带来广泛经济效益。
2D轨道图
3D轨道图
轨道高度分析图
轨道倾角分析图
轨道综合分析图
查看轨道综合分析图